First Coast — WCR9075 — position and weather

sailwx.info

Track history (hours):
 
Tides and Currents Weather Stations Pressure Air Temp Water Temp Dewpoint Dewpoint Depression Visibility Wind Speed Wind Dir Waves Ship Positions

First Coast

Owner: DANN MARINE TOWING L C, CHESAPEAKE CITY, MD. More information available from US FCC via Universal Licensing System and Coast Guard Vessel Documentation Center.

Last reported at 2014-Oct-31 10:06 UTC. Time now 2014-Nov-01 11:42 UTC.
Position N 39°53' W 075°12'.

; draft 3.5 m.

Type: Tug. MMSI: 367024280.

Date/timePositionNaut miles runAvg speedWind from/ knotsBaromVisibWave heightAir tempDewpointWater temp
2014-Oct-31 10:06N 39°53' W 075°12'  
2014-Oct-28 23:18N 39°46' W 075°29'7 9.2
2014-Oct-28 22:33N 39°39' W 075°33'3 2.7
2014-Oct-28 21:33N 39°37' W 075°35'8 8.4
2014-Oct-28 20:33N 39°45' W 075°30'1 0.1
2014-Oct-28 10:19N 39°45' W 075°29'6 7.3
2014-Oct-28 09:33N 39°40' W 075°32'5 5.2
2014-Oct-28 08:33N 39°35' W 075°33'8 7.6
2014-Oct-28 07:33N 39°43' W 075°31'9 9.0
2014-Oct-28 06:33N 39°49' W 075°23'  
2014-Oct-25 18:08N 39°48' W 075°25'4 4.1
2014-Oct-25 17:07N 39°45' W 075°29'5 9.2
2014-Oct-25 16:33N 39°40' W 075°32'7 6.9
2014-Oct-25 15:33N 39°34' W 075°33'7 7.3
2014-Oct-25 14:33N 39°33' W 075°43'41 6.7
2014-Oct-25 08:32N 39°11' W 076°27'6 5.9
2014-Oct-25 07:29N 39°13' W 076°35'0 0.1
2014-Oct-25 06:34N 39°13' W 076°35'0 0.0
2014-Oct-25 05:33N 39°13' W 076°35'0 0.0
2014-Oct-25 04:33N 39°13' W 076°35'0 0.0
2014-Oct-25 03:33N 39°13' W 076°35'0 0.0
2014-Oct-25 02:33N 39°13' W 076°35'0 0.0
2014-Oct-25 01:33N 39°13' W 076°35'0 0.0
2014-Oct-25 00:33N 39°13' W 076°35'0 0.0
2014-Oct-24 23:32N 39°13' W 076°35'0 0.1
2014-Oct-24 22:33N 39°13' W 076°35'4 3.6
2014-Oct-24 21:33N 39°12' W 076°30'7 6.9
2014-Oct-24 20:33N 39°09' W 076°22'37 4.0
2014-Oct-24 11:15N 39°32' W 075°44'6 8.2
2014-Oct-24 10:33N 39°33' W 075°37'7 6.9
2014-Oct-24 09:33N 39°39' W 075°33'10 9.7
2014-Oct-24 08:33N 39°48' W 075°26'  
2014-Oct-21 23:33N 39°44' W 075°30'9 9.3
2014-Oct-21 22:33N 39°35' W 075°33'1010.0
2014-Oct-21 21:33N 39°32' W 075°46'2 0.3
2014-Oct-21 12:30N 39°32' W 075°49'4 4.3
2014-Oct-21 11:33N 39°33' W 075°44'5 5.3
2014-Oct-21 10:33N 39°33' W 075°37'  
Track history (hours):
 
Tides and Currents Weather Stations Pressure Air Temp Water Temp Dewpoint Dewpoint Depression Visibility Wind Speed Wind Dir Waves Ship Positions

First Coast

Owner: DANN MARINE TOWING L C, CHESAPEAKE CITY, MD. More information available from US FCC via Universal Licensing System and Coast Guard Vessel Documentation Center.

Last reported at 2014-Oct-31 10:06 UTC. Time now 2014-Nov-01 11:42 UTC.
Position N 39°53' W 075°12'.

; draft 3.5 m.

Type: Tug. MMSI: 367024280.

Date/timePositionNaut miles runAvg speedWind from/ knotsBaromVisibWave heightAir tempDewpointWater temp
2014-Oct-31 10:06N 39°53' W 075°12'  
2014-Oct-28 23:18N 39°46' W 075°29'7 9.2
2014-Oct-28 22:33N 39°39' W 075°33'3 2.7
2014-Oct-28 21:33N 39°37' W 075°35'8 8.4
2014-Oct-28 20:33N 39°45' W 075°30'1 0.1
2014-Oct-28 10:19N 39°45' W 075°29'6 7.3
2014-Oct-28 09:33N 39°40' W 075°32'5 5.2
2014-Oct-28 08:33N 39°35' W 075°33'8 7.6
2014-Oct-28 07:33N 39°43' W 075°31'9 9.0
2014-Oct-28 06:33N 39°49' W 075°23'  
2014-Oct-25 18:08N 39°48' W 075°25'4 4.1
2014-Oct-25 17:07N 39°45' W 075°29'5 9.2
2014-Oct-25 16:33N 39°40' W 075°32'7 6.9
2014-Oct-25 15:33N 39°34' W 075°33'7 7.3
2014-Oct-25 14:33N 39°33' W 075°43'41 6.7
2014-Oct-25 08:32N 39°11' W 076°27'6 5.9
2014-Oct-25 07:29N 39°13' W 076°35'0 0.1
2014-Oct-25 06:34N 39°13' W 076°35'0 0.0
2014-Oct-25 05:33N 39°13' W 076°35'0 0.0
2014-Oct-25 04:33N 39°13' W 076°35'0 0.0
2014-Oct-25 03:33N 39°13' W 076°35'0 0.0
2014-Oct-25 02:33N 39°13' W 076°35'0 0.0
2014-Oct-25 01:33N 39°13' W 076°35'0 0.0
2014-Oct-25 00:33N 39°13' W 076°35'0 0.0
2014-Oct-24 23:32N 39°13' W 076°35'0 0.1
2014-Oct-24 22:33N 39°13' W 076°35'4 3.6
2014-Oct-24 21:33N 39°12' W 076°30'7 6.9
2014-Oct-24 20:33N 39°09' W 076°22'37 4.0
2014-Oct-24 11:15N 39°32' W 075°44'6 8.2
2014-Oct-24 10:33N 39°33' W 075°37'7 6.9
2014-Oct-24 09:33N 39°39' W 075°33'10 9.7
2014-Oct-24 08:33N 39°48' W 075°26'  
2014-Oct-21 23:33N 39°44' W 075°30'9 9.3
2014-Oct-21 22:33N 39°35' W 075°33'1010.0
2014-Oct-21 21:33N 39°32' W 075°46'2 0.3
2014-Oct-21 12:30N 39°32' W 075°49'4 4.3
2014-Oct-21 11:33N 39°33' W 075°44'5 5.3
2014-Oct-21 10:33N 39°33' W 075°37'  

Dump ship's entire track history